Beckley, WV

2:19 PM EDT on April 26, 2017 (GMT -0400)
Raleigh County Memorial

Weather History for KBKW - September, 2011

Change the Weather History Date:

Friday, September 16, 2011

  Actual Average Record
Temperature  
Mean Temperature 48 °F 63 °F  
Max Temperature 57 °F 73 °F 90 °F (1955)
Min Temperature 39 °F 53 °F 33 °F (1961)
Degree Days  
Heating Degree Days 17 4  
Month to date heating degree days 34 33  
Since 1 July heating degree days 35 54  
Cooling Degree Days 0 2  
Month to date cooling degree days 61 44  
Year to date cooling degree days 851 537  
Moisture  
Dew Point 38 °F    
Average Humidity 74    
Maximum Humidity 100    
Minimum Humidity 47    
Precipitation  
Precipitation 0.00 in 0.12 in 1.79 in (1934)
Month to date precipitation 4.55 1.64  
Year to date precipitation 30.59 31.30  
Snow  
Snow 0.00 in - - ()
Month to date snowfall 0.0  
Since 1 September snowfall 0.0  
Snow Depth 0.00 in    
Sea Level Pressure  
Sea Level Pressure 30.30 in    
Wind  
Wind Speed 6 mph (ESE)    
Max Wind Speed 16 mph    
Max Gust Speed 22 mph    
Visibility 6 miles    
Events Fog    
T = Trace of Precipitation, MM = Missing Value Source: NWS Daily Summary

Daily Weather History Graph

Daily Weather History Graph

Search for Another Location

Airport or City:

Trip Planner

Search our weather history database for the weather conditions in past years. The results will help you decide how hot, cold, wet, or windy it might be!

Date:

Astronomy

Sep. 16, 2011 Rise Set
Actual Time 7:06 AM EDT 7:31 PM EDT
Civil Twilight 6:40 AM EDT 7:57 PM EDT
Nautical Twilight 6:09 AM EDT 8:28 PM EDT
Astronomical Twilight 5:38 AM EDT 8:59 PM EDT
Moon 9:27 PM EDT (9/16) 11:05 AM EDT (9/16)
Length of Visible Light 13h 16m
Length of Day
12h 24m
Waning Gibbous, 84% of the Moon is Illuminated
Sep 16
Waning Gibbous
Sep 20
Last Quarter
Sep 27
New
Oct 3
First Quarter
Oct 11
Full

Hourly Weather History & Observations

Time (EDT) Temp. Windchill Dew Point Humidity Pressure Visibility Wind Dir Wind Speed Gust Speed Precip Events Conditions
12:29 AM 46.4 °F 42.9 °F 42.8 °F 87% 30.27 in 10.0 mi NE 6.9 mph - N/A   Scattered Clouds
12:51 AM 46.0 °F 43.1 °F 43.0 °F 89% 30.27 in 10.0 mi NNE 5.8 mph - N/A   Clear
1:51 AM 45.0 °F 42.6 °F 42.1 °F 90% 30.28 in 10.0 mi ENE 4.6 mph - N/A   Clear
2:51 AM 43.0 °F 41.3 °F 41.0 °F 93% 30.27 in 10.0 mi ENE 3.5 mph - N/A   Clear
3:51 AM 43.0 °F - 39.9 °F 89% 30.29 in 10.0 mi Calm Calm - N/A   Clear
4:10 AM 41.0 °F - 39.2 °F 93% 30.28 in 1.2 mi Calm Calm - N/A   Partly Cloudy
4:15 AM 39.2 °F - 39.2 °F 100% 30.28 in 0.2 mi Calm Calm - N/A Fog Fog
4:22 AM 39.2 °F - 39.2 °F 100% 30.28 in 0.2 mi Calm Calm - N/A Fog Fog
4:27 AM 39.2 °F - 39.2 °F 100% 30.28 in 1.0 mi Calm Calm - N/A   Mist
4:29 AM 39.2 °F - 37.4 °F 93% 30.28 in 2.5 mi Calm Calm - N/A   Scattered Clouds
4:31 AM 39.2 °F - 39.2 °F 100% 30.29 in 7.0 mi Calm Calm - N/A   Mostly Cloudy
4:36 AM 39.2 °F - 39.2 °F 100% 30.29 in 1.5 mi Calm Calm - N/A   Mostly Cloudy
4:46 AM 41.0 °F - 39.2 °F 93% 30.29 in 0.2 mi Calm Calm - N/A Fog Fog
4:51 AM 41.0 °F 39.0 °F 39.9 °F 96% 30.31 in 0.2 mi NNE 3.5 mph - N/A Fog Fog
5:22 AM 39.2 °F - 39.2 °F 100% 30.29 in 0.5 mi Calm Calm - N/A Fog Fog
5:42 AM 41.0 °F 38.0 °F 39.2 °F 93% 30.29 in 0.2 mi NNE 4.6 mph - N/A Fog Fog
5:51 AM 39.9 °F 37.8 °F 39.9 °F 100% 30.31 in 0.2 mi ENE 3.5 mph - N/A Fog Fog
5:59 AM 39.2 °F - 39.2 °F 100% 30.30 in 0.5 mi Calm Calm - N/A Fog Fog
6:22 AM 39.2 °F 37.0 °F 37.4 °F 93% 30.30 in 0.2 mi East 3.5 mph - N/A Fog Fog
6:51 AM 39.9 °F - 39.0 °F 97% 30.32 in 0.2 mi Calm Calm - N/A Fog Fog
7:32 AM 39.2 °F - 37.4 °F 93% 30.32 in 1.2 mi Calm Calm - N/A   Mostly Cloudy
7:35 AM 39.2 °F 37.0 °F 37.4 °F 93% 30.32 in 5.0 mi ENE 3.5 mph - N/A   Scattered Clouds
7:51 AM 39.0 °F 35.7 °F 37.0 °F 93% 30.34 in 10.0 mi East 4.6 mph - N/A   Clear
8:51 AM 43.0 °F 41.3 °F 39.0 °F 86% 30.33 in 10.0 mi Variable 3.5 mph - N/A   Clear
9:51 AM 46.4 °F 43.5 °F 35.6 °F 66% 30.32 in 10.0 mi ESE 5.8 mph - N/A   Clear
10:51 AM 52.0 °F - 35.1 °F 53% 30.34 in 10.0 mi ESE 9.2 mph - N/A   Clear
11:51 AM 52.0 °F - 35.1 °F 53% 30.34 in 10.0 mi SE 6.9 mph - N/A   Clear
12:51 PM 52.0 °F - 35.1 °F 53% 30.33 in 10.0 mi SE 11.5 mph - N/A   Clear
1:51 PM 55.0 °F - 37.9 °F 53% 30.34 in 10.0 mi SE 9.2 mph - N/A   Clear
2:51 PM 55.9 °F - 37.0 °F 49% 30.30 in 10.0 mi ESE 9.2 mph - N/A   Partly Cloudy
3:51 PM 55.4 °F - 35.6 °F 47% 30.29 in 10.0 mi SE 11.5 mph - N/A   Mostly Cloudy
4:51 PM 55.0 °F - 35.1 °F 47% 30.30 in 10.0 mi SE 8.1 mph - N/A   Clear
5:51 PM 55.0 °F - 36.0 °F 49% 30.29 in 10.0 mi SSE 4.6 mph - N/A   Partly Cloudy
6:51 PM 54.0 °F - 37.9 °F 55% 30.30 in 10.0 mi SE 4.6 mph - N/A   Clear
7:51 PM 52.0 °F - 39.9 °F 63% 30.31 in 10.0 mi Calm Calm - N/A   Mostly Cloudy
8:51 PM 51.1 °F - 39.0 °F 63% 30.30 in 10.0 mi SE 5.8 mph - N/A   Overcast
9:51 PM 51.1 °F - 39.0 °F 63% 30.30 in 10.0 mi SE 4.6 mph - N/A   Overcast
10:51 PM 50.0 °F - 39.0 °F 66% 30.29 in 10.0 mi SSE 4.6 mph - N/A   Partly Cloudy
11:51 PM 48.9 °F - 39.0 °F 69% 30.29 in 10.0 mi SSE 3.5 mph - N/A   Clear